Change the Weather History Date:

Tuesday, December 4, 2012

  Actual Average (KMSN) Record (KMSN)
Temperature  
Mean Temperature 42 °F 27 °F  
Max Temperature 55 °F 34 °F 60 °F (2001)
Min Temperature 28 °F 20 °F -15 °F (1886)
Degree Days  
Heating Degree Days 23 38  
Month to date heating degree days 150  
Since 1 July heating degree days 1729  
Cooling Degree Days 0 0  
Month to date cooling degree days 0  
Year to date cooling degree days 568  
Moisture  
Dew Point 27 °F    
Average Humidity 52    
Maximum Humidity 71    
Minimum Humidity 34    
Precipitation  
Precipitation 0.00 in 0.07 in 0.97 in (1973)
Month to date precipitation 0.29  
Year to date precipitation 33.03  
Snow  
Snow 0.00 in 0.40 in 5.60 in (2007)
Month to date snowfall 1.6  
Since 1 July snowfall 5.7  
Snow Depth -    
Sea Level Pressure  
Sea Level Pressure 30.10 in    
Wind  
Wind Speed 11 mph (WNW)    
Max Wind Speed 25 mph    
Max Gust Speed 32 mph    
Visibility 10 miles    
Events      
T = Trace of Precipitation, MM = Missing Value Source: NWS Daily Summary

Daily Weather History Graph

Daily Weather History Graph

Search for Another Location

Airport or City:

Trip Planner

Search our weather history database for the weather conditions in past years. The results will help you decide how hot, cold, wet, or windy it might be!

Date:

Astronomy

Dec. 04, 2012 Rise Set
Actual Time 7:13 AM CST 4:23 PM CST
Civil Twilight 6:41 AM CST 4:55 PM CST
Nautical Twilight 6:06 AM CST 5:30 PM CST
Astronomical Twilight 5:31 AM CST 6:05 PM CST
Moon 10:16 PM CST (12/4) 11:02 AM CST (12/4)
Length of Visible Light 10h 13m
Length of Day
9h 09m
Waning Gibbous, 69% of the Moon is Illuminated
Dec 4
Waning Gibbous
Dec 6
Last Quarter
Dec 13
New
Dec 19
First Quarter
Dec 28
Full

Hourly Weather History & Observations

Time (CST) Temp. Windchill Dew Point Humidity Pressure Visibility Wind Dir Wind Speed Gust Speed Precip Events Conditions
12:15 AM 47.1 °F - 37.4 °F 69% 29.93 in 10.0 mi WNW 8.1 mph - N/A   Clear
12:35 AM 46.2 °F 41.7 °F 36.9 °F 70% 29.93 in 10.0 mi WNW 9.2 mph - N/A   Clear
12:55 AM 46.0 °F 41.0 °F 35.6 °F 67% 29.94 in 10.0 mi WNW 10.4 mph - N/A   Clear
1:15 AM 45.3 °F 41.6 °F 35.1 °F 67% 29.94 in 10.0 mi NW 6.9 mph - N/A   Clear
1:35 AM 44.8 °F 40.4 °F 34.7 °F 68% 29.94 in 10.0 mi WNW 8.1 mph - N/A   Clear
1:55 AM 44.1 °F 40.8 °F 34.0 °F 68% 29.95 in 10.0 mi NW 5.8 mph - N/A   Clear
2:15 AM 44.8 °F 41.0 °F 34.2 °F 66% 29.96 in 10.0 mi WNW 6.9 mph - N/A   Clear
2:35 AM 43.7 °F 39.1 °F 33.8 °F 68% 29.97 in 10.0 mi WNW 8.1 mph - N/A   Clear
2:55 AM 43.5 °F 39.4 °F 33.8 °F 69% 29.97 in 10.0 mi WNW 6.9 mph - N/A   Clear
3:15 AM 42.1 °F 39.2 °F 33.3 °F 71% 29.97 in 10.0 mi West 4.6 mph - N/A   Clear
3:35 AM 41.7 °F 37.3 °F 32.2 °F 69% 29.97 in 10.0 mi West 6.9 mph - N/A   Clear
3:55 AM 42.3 °F 37.9 °F 32.0 °F 67% 29.97 in 10.0 mi West 6.9 mph - N/A   Clear
4:15 AM 41.9 °F 36.9 °F 31.6 °F 67% 29.98 in 10.0 mi WNW 8.1 mph - N/A   Clear
4:35 AM 44.4 °F 39.5 °F 30.9 °F 59% 29.99 in 10.0 mi WNW 9.2 mph - N/A   Clear
4:55 AM 42.1 °F 37.7 °F 31.1 °F 65% 30.01 in 10.0 mi West 6.9 mph - N/A   Clear
5:15 AM 42.3 °F 37.3 °F 30.7 °F 64% 30.01 in 10.0 mi West 8.1 mph - N/A   Clear
5:35 AM 41.7 °F 36.1 °F 30.6 °F 65% 30.02 in 10.0 mi West 9.2 mph - N/A   Clear
6:15 AM 41.2 °F 36.0 °F 30.0 °F 65% 30.04 in 10.0 mi WNW 8.1 mph - N/A   Clear
6:35 AM 41.9 °F 36.3 °F 30.0 °F 63% 30.04 in 10.0 mi West 9.2 mph - N/A   Clear
6:55 AM 42.3 °F 36.8 °F 29.7 °F 61% 30.05 in 10.0 mi West 9.2 mph - N/A   Clear
7:15 AM 43.0 °F 37.2 °F 29.3 °F 59% 30.05 in 10.0 mi West 10.4 mph - N/A   Clear
7:35 AM 42.8 °F 37.0 °F 29.5 °F 59% 30.05 in 10.0 mi West 10.4 mph - N/A   Clear
7:55 AM 43.2 °F 37.4 °F 29.3 °F 58% 30.06 in 10.0 mi West 10.4 mph - N/A   Clear
8:15 AM 43.7 °F 37.3 °F 29.3 °F 57% 30.07 in 10.0 mi West 12.7 mph - N/A   Clear
8:35 AM 43.9 °F 37.9 °F 29.1 °F 56% 30.07 in 10.0 mi West 11.5 mph - N/A   Clear
8:55 AM 46.8 °F - 29.5 °F 51% 30.08 in 10.0 mi West 13.8 mph - N/A   Clear
9:15 AM 48.4 °F - 29.3 °F 48% 30.08 in 10.0 mi West 12.7 mph 23.0 mph N/A   Clear
9:55 AM 49.5 °F - 29.1 °F 46% 30.08 in 10.0 mi West 12.7 mph 18.4 mph N/A   Clear
10:15 AM 50.9 °F - 29.1 °F 43% 30.08 in 10.0 mi WNW 17.3 mph 26.5 mph N/A   Clear
10:35 AM 51.3 °F - 29.7 °F 44% 30.08 in 10.0 mi West 15.0 mph 21.9 mph N/A   Clear
10:55 AM 51.6 °F - 29.3 °F 42% 30.08 in 10.0 mi West 16.1 mph - N/A   Clear
11:15 AM 52.2 °F - 29.7 °F 42% 30.08 in 10.0 mi West 17.3 mph 21.9 mph N/A   Clear
11:35 AM 53.1 °F - 30.0 °F 41% 30.08 in 10.0 mi West 15.0 mph - N/A   Clear
11:55 AM 53.6 °F - 29.7 °F 40% 30.07 in 10.0 mi West 12.7 mph - N/A   Clear
12:15 PM 53.6 °F - 29.1 °F 39% 30.07 in 10.0 mi WNW 18.4 mph 26.5 mph N/A   Clear
12:35 PM 54.0 °F - 27.9 °F 37% 30.06 in 10.0 mi West 21.9 mph 28.8 mph N/A   Clear
12:55 PM 55.4 °F - 28.6 °F 36% 30.06 in 10.0 mi West 16.1 mph 21.9 mph N/A   Clear
1:15 PM 54.9 °F - 27.0 °F 34% 30.05 in 10.0 mi West 25.3 mph 31.1 mph N/A   Clear
1:35 PM 54.9 °F - 27.1 °F 34% 30.06 in 10.0 mi West 23.0 mph 31.1 mph N/A   Clear
1:55 PM 54.5 °F - 26.8 °F 34% 30.06 in 10.0 mi West 23.0 mph 32.2 mph N/A   Clear
2:15 PM 54.0 °F - 27.0 °F 35% 30.06 in 10.0 mi West 23.0 mph 27.6 mph N/A   Clear
2:35 PM 53.6 °F - 27.5 °F 37% 30.07 in 10.0 mi West 15.0 mph 26.5 mph N/A   Clear
2:55 PM 53.2 °F - 27.3 °F 37% 30.08 in 10.0 mi West 20.7 mph 26.5 mph N/A   Clear
3:15 PM 52.7 °F - 27.1 °F 37% 30.08 in 10.0 mi West 20.7 mph 26.5 mph N/A   Clear
3:35 PM 51.8 °F - 26.6 °F 38% 30.09 in 10.0 mi WNW 15.0 mph 21.9 mph N/A   Clear
3:55 PM 50.9 °F - 23.9 °F 35% 30.10 in 10.0 mi WNW 17.3 mph 25.3 mph N/A   Clear
4:15 PM 49.1 °F - 23.9 °F 37% 30.11 in 10.0 mi WNW 13.8 mph - N/A   Clear
4:35 PM 48.4 °F - 21.6 °F 35% 30.12 in 10.0 mi WNW 19.6 mph 24.2 mph N/A   Clear
4:55 PM 47.1 °F - 22.1 °F 37% 30.13 in 10.0 mi WNW 17.3 mph 23.0 mph N/A   Clear
5:15 PM 46.0 °F 39.6 °F 22.5 °F 39% 30.13 in 10.0 mi WNW 15.0 mph 19.6 mph N/A   Clear
5:35 PM 44.8 °F 38.7 °F 22.8 °F 42% 30.14 in 10.0 mi NW 12.7 mph 18.4 mph N/A   Clear
5:55 PM 44.4 °F 36.9 °F 21.4 °F 40% 30.16 in 10.0 mi NW 17.3 mph 23.0 mph N/A   Clear
6:15 PM 43.2 °F 36.2 °F 21.2 °F 42% 30.17 in 10.0 mi NW 13.8 mph 20.7 mph N/A   Clear
6:35 PM 41.9 °F 34.3 °F 21.6 °F 44% 30.18 in 10.0 mi NW 15.0 mph - N/A   Clear
6:55 PM 40.3 °F 33.9 °F 21.2 °F 47% 30.19 in 10.0 mi NW 10.4 mph - N/A   Clear
7:15 PM 39.6 °F 32.5 °F 20.5 °F 46% 30.20 in 10.0 mi NW 11.5 mph 18.4 mph N/A   Clear
7:35 PM 37.8 °F 31.3 °F 21.6 °F 52% 30.21 in 10.0 mi NNW 9.2 mph - N/A   Clear
7:55 PM 37.4 °F 29.3 °F 20.8 °F 51% 30.22 in 10.0 mi NW 12.7 mph 17.3 mph N/A   Clear
8:15 PM 36.1 °F 29.3 °F 21.0 °F 54% 30.22 in 10.0 mi NNW 9.2 mph - N/A   Clear
8:35 PM 34.7 °F 26.4 °F 21.2 °F 58% 30.24 in 10.0 mi North 11.5 mph - N/A   Clear
8:55 PM 33.4 °F 25.4 °F 20.8 °F 60% 30.24 in 10.0 mi NNW 10.4 mph - N/A   Clear
9:15 PM 32.2 °F 25.8 °F 21.0 °F 63% 30.27 in 10.0 mi North 6.9 mph - N/A   Clear
9:35 PM 32.5 °F 23.7 °F 17.8 °F 55% 30.27 in 10.0 mi NNW 11.5 mph - N/A   Clear
9:55 PM 31.8 °F 23.3 °F 17.6 °F 56% 30.27 in 10.0 mi North 10.4 mph 19.6 mph N/A   Clear
10:15 PM 31.1 °F 21.9 °F 16.2 °F 54% 30.28 in 10.0 mi North 11.5 mph - N/A   Clear
10:35 PM 30.6 °F 21.2 °F 15.4 °F 54% 30.30 in 10.0 mi NNW 11.5 mph - N/A   Clear
10:55 PM 29.8 °F 20.9 °F 15.3 °F 55% 30.31 in 10.0 mi NNW 10.4 mph - N/A   Clear
10:57 PM 30.2 °F 20.8 °F 15.8 °F 55% 30.31 in 10.0 mi NNW 11.5 mph - N/A   Clear
11:15 PM 29.3 °F 19.6 °F 14.5 °F 54% 30.32 in 10.0 mi NNW 11.5 mph - N/A   Clear
11:35 PM 29.1 °F 20.6 °F 14.4 °F 54% 30.33 in 10.0 mi NNW 9.2 mph - N/A   Clear
11:55 PM 28.4 °F 20.4 °F 14.2 °F 55% 30.34 in 10.0 mi NNW 8.1 mph - N/A   Clear